Gaspé Airport, Quebec

Past 24 Hour Conditions

This table is a summary of hourly weather conditions for the past 24 hours. This summary includes the following parameters: temperature, humidity, dew point, wind speed and direction, air pressure, visibility and/or wind chill and humidex.
Date / Time
(EDT)
Conditions Temp (°F) Humidity (%) Dew Point (°F) Wind (mph) Pressure (inches) Vis (mi) Wind Chill
23 April 2014
13:00 Light Rain 33 99 33 E 11 29.6 0.6 *
12:00 Light Rain 33 98 33 E 12 gust 20 29.6 1 *
11:00 Light Rain 33 97 33 E 14 29.6 4 *
10:00 Light Rain 33 97 33 ESE 15 29.6 3 *
9:00 Light Rain 33 97 33 E 13 29.6 6 *
8:00 Ice Pellets 33 98 32 E 8 29.7 3 *
7:00 Light Snow 32   99 32 E 8 29.7 3 *
6:00 Light Rain 32   98 32 E 6 29.7 3 *
5:00 Light Rain 32   100 32 ESE 8 29.7 5 *
4:00 Light Rain 32   100 32 ESE 3 29.7 2 30
3:00 Light Rain 32   100 32 ENE 4 29.7 3 28
2:00 Light Rain 32   98 32 ENE 3 29.7 10 *
1:00 Light Snow 33 98 32 ENE 5 29.7 3 *
00:00 Light Rain 33 95 32 ENE 7 29.7 10 *
22 April 2014
23:00 Light Rain 34 89 31 ENE 8 29.7 15 *
22:00 Light Rain 35 86 31 ENE 7 29.8 15 *
21:00 Cloudy 36 79 30 NNE 3 29.8 15 *
20:00 Cloudy 35 86 32 ENE 6 29.8 15 *
19:00 Cloudy 36 86 32 ENE 10 29.8 15 *
18:00 Mostly Cloudy 36 86 33 ENE 10 29.7 15 *
17:00 Mostly Cloudy 38 79 32 ENE 12 29.7 15 *
16:00 Partly Cloudy 40 71 32 ENE 12 29.7 15 *
15:00 Partly Cloudy 41   63 29 ENE 13 29.7 15 *
14:00 Mostly Cloudy 41   64 30 ENE 15 29.7 15 *
13:00 Partly Cloudy 40 68 30 ENE 14 29.8 15 *
N/A
Not available
 ↑ 
Highest temperature
 ↓ 
Lowest temperature
*
Value not significant.

If you require additional historical weather information, please visit Climate Data Online.